Location: Amsterdam
(30.7274°N, 84.4357°W)
Time: 12:24:15
(UTC+00:00)

Courier 1B Rocket - Pass Details

Date: 09 February 2026
Orbit: 920 x 1201 km, 28.2° (Epoch: 17 March)

Event Time Altitude Azimuth Distance (km) Brightness Sun altitude
Rises 07:22:09 0° 272° (W) 3,912 - -63.8°
Reaches altitude 10° 07:24:52 10° 270° (W) 2,992 - -63.3°
Maximum altitude 07:32:16 69° 189° (S) 1,242 - -61.9°
Drops below altitude 10° 07:40:00 10° 107° (ESE) 3,121 - -60.5°
Exits shadow 07:42:35 - 105° (ESE) 3,987 8.5 -60.0°
Sets 07:42:54 0° 105° (ESE) 4,090 8.6 -59.9°
